Regional Weather Roundup
Issued by NWS

Home | Current Version | Previous Version | Text Only | Print | Product List | Glossary Off
Versions: 1 2 3 4 5 6 7 8 9 10 11 12 13 14 15 16 17 18 19 20 21 22 23 24 25 26 27 28 29 30 31 32 33 34 35 36 37 38 39 40 41 42 43 44 45 46 47 48 49 50

000
ASUS45 KCYS 300410
RWRWY

WYOMING REGIONAL WEATHER ROUNDUP
NATIONAL WEATHER SERVICE CHEYENNE WY
1000 PM MDT FRI AUG 29 2014

NOTE:  "FAIR" INDICATES FEW OR NO CLOUDS BELOW 12,000 FEET
WITH NO SIGNIFICANT WEATHER AND/OR OBSTRUCTIONS TO VISIBILITY.

WYZ001-300500-
YELLOWSTONE NATIONAL PARK

CITY           SKY/WX    TMP DP  RH WIND       PRES   REMARKS
LK YELLOWSTONE   N/A     56  37  49 W6        30.21F
W YELLOWSTONE  NOT AVBL

$$
WYZ002>013-054>058-071-098>099-300500-
NORTHERN WYOMING

CITY           SKY/WX    TMP DP  RH WIND       PRES   REMARKS
JACKSON        PTCLDY    52  43  71 N3        30.12R
CODY           CLEAR     64  48  55 SE3       30.00S
GREYBULL       CLEAR     69  47  45 SE7       29.92S
WORLAND        PTCLDY    69  43  38 SE14      29.93S
SHERIDAN       CLEAR     63  51  65 E7        29.97F
BUFFALO        CLEAR     64  47  53 S9        30.06S
GILLETTE       CLEAR     55  51  86 S5        30.03R
HULETT         FAIR      61  50  67 MISG      30.05
NEWCASTLE      FAIR      61  50  67 SE8       30.06

$$
WYZ014>020-022>026-101>103-300500-
CENTRAL WYOMING

CITY           SKY/WX    TMP DP  RH WIND       PRES   REMARKS
BIG PINEY      PTCLDY    54  41  61 N9        30.19R
PINEDALE       CLEAR     54  43  66 NW3       30.19F
DUBOIS         FAIR      55  36  47 NW3       30.17R
LANDER         PTCLDY    69  36  29 SW10      30.03R
RIVERTON       PTCLDY    67  38  34 NE6       30.04R
CASPER         CLEAR     63  44  50 E12       30.06R
DOUGLAS        CLEAR     60  49  66 S7        30.09R

$$
WYZ021-027>030-104>119-300500-
SOUTHERN WYOMING

CITY           SKY/WX    TMP DP  RH WIND       PRES   REMARKS
EVANSTON       PTCLDY    60  41  49 SE10      30.20S
KEMMERER       PTCLDY    61  37  41 CALM      30.22S
FORT BRIDGER   FAIR      62  42  48 S15       30.24S
ROCK SPRINGS   PTCLDY    62  38  40 SW17      30.19
DIXON          FAIR      56  51  81 CALM      30.22R
RAWLINS        PTCLDY    64  41  42 W10       30.17S
SARATOGA       FAIR      59  45  58 SW10      30.20S
LARAMIE        PTCLDY    53  46  77 SE12      30.22R
CHEYENNE       PTCLDY    56  50  80 W5        30.18S
TORRINGTON     MOCLDY    62  56  80 E10       30.07R
PINE BLUFFS    FAIR      55  48  76 CALM      30.14S

$$


USA.gov is the U.S. government's official web portal to all federal, state and local government web resources and services.